Weather in Murzitsy

Russia / Nizhny Novgorod Oblast'     55°17′42″N   46°12′39″E
temp.,
°C
wind,
m/s
gust,
m/s
humid.,
%
clouds,
%
prec.,
mm/h
press.,
hPa
HPBL,
m
2 march, tue
tue200:00−6sw7149298 0.1 1013468
03:00−3sw8159599 1.8 1009653
06:00−1wsw81594100 1.0 1004721
09:00+1w71399100 2.0 1003678
12:00+1w71299100 0.6 1001663
15:000wnw5996100 0.9 1001649
18:00−2w499263 0.0 1001160
21:00−4wnw499175 0.1 1003165
3 march, wed
wed300:00−4wnw4109397 0.0 1002269
03:00−5wnw5129298 0.0 1003366
06:00−6nw6139388 0.1 1003505
09:00−7nw7119194 0.2 1005632
12:00−6nw71090100 0.2 1006744
15:00−5nw71088100 0.3 1007736
18:00−6wnw61087100 0.1 1008684
21:00−9w4119293 0.1 1008252
4 march, thu
thu400:00−5w6139395 0.1 1006479
03:00−6w5139397 0.2 1005390
06:00−5wsw5129398 0.1 1004448
09:00−3sw7139099 0.3 1001664
12:00−1sw81493100 0.4 997870
15:00+1wsw81493100 0.7 996982
18:000wsw71490100 0.1 995698
21:00−1wsw71396100 0.9 996673
5 march, fri
fri500:00−4w4992100 1.3 995347
03:00−5wnw41091100 1.3 997369
06:00−9nw489589 0.1 1001202
09:00−9nw479492 0.1 1004361
12:00−8nw469078 0.0 1007391
15:00−8wnw478639 0.0 1009439
18:00−13w33910 0.0 101124
21:00−14w23921 0.0 101320
6 march, sat
sat600:00−15wsw119365 0.0 101320
03:00−16ssw229234 0.0 101320
06:00−15s239411 0.0 101321
09:00−11ssw359555 0.3 1012211
12:00−7wsw3591100 0.3 1011419
15:00−7wnw4690100 0.3 1010558
18:00−11w349586 0.0 101039
21:00−14wnw489389 0.1 1012181